[[{"header":{"parameterUnit":"m.s-1","parameterCategory":1,"la1":30.2991,"la2":30.254,"lo1":-89.0895,"lo2":-89.0444,"dy":0.0017,"dx":0.0017,"nx":28,"ny":28,"refTime":"2025-07-22T09:00:00:Z","depth":0,"parameterNumber":2,"parameterNumberName":"U-component_of_WINDS"},"data":[0,0,0,0,0,0,0,0,0,0,0,0,0,0,0,0,0,0,0,0,0,0,0,0,0,0,0,0,0,0,0,0,0,0,0,0,0,0,0,0,0,0,0,0,0,0,0,0,0,0,0,0,0,0,0,0,0,0,0.3963,0.3959,0,0.3572,0.3567,0.3563,0.3324,0.3322,0.3321,0.332,0.2906,0.2897,0.2887,0,0,0,0,0,0,0,0,0,0,0,0,0,0.449,0.4481,0.3963,0.3958,0.3954,0.3573,0.3567,0.3562,0.3324,0.3322,0.3321,0.332,0.291,0.2898,0.2886,0,0,0,0,0,0,0,0,0,0,0,0,0,0.4196,0.4479,0.3964,0.3789,0.377,0.3574,0.3567,0.356,0.3324,0.3322,0.3321,0.3319,0.2913,0.2899,0.2884,0.2828,0,0,0.2839,0.2832,0,0,0,0,0,0,0,0,0.4213,0.4177,0.382,0.3801,0.3779,0.3495,0.3601,0.3314,0.3324,0.3493,0.332,0.3318,0.3103,0.3072,0.3002,0.2808,0.2791,0.2838,0.2829,0.2822,0.2818,0,0,0,0,0,0,0,0.4233,0.4192,0.3808,0.3815,0.379,0.3725,0.3682,0.3545,0.3312,0.3478,0.346,0.3417,0.3091,0.3017,0.2991,0.2785,0.2838,0.2825,0.2816,0.281,0.2521,0.2522,0,0,0,0,0,0,0.4284,0.4211,0.382,0.3796,0.3996,0.3717,0.3668,0.3588,0.3313,0.327,0.3419,0.3408,0.3043,0.3008,0.2975,0.289,0.2822,0.2808,0.28,0.252,0.2522,0.2523,0,0,0,0,0,0,0.4296,0.4251,0.3836,0.3998,0.3941,0.371,0.3621,0.3581,0.3507,0.3269,0.3225,0.3388,0.3041,0.2996,0.2867,0.2873,0.2802,0.2788,0.2518,0.252,0.2522,0.2722,0,0,0,0,0,0,0.4312,0.4257,0.4237,0.4,0.3933,0.374,0.3622,0.3574,0.3483,0.3465,0.3228,0.3186,0.3036,0.289,0.2852,0.2851,0.2776,0.2517,0.2519,0.2522,0.2714,0.2731,0.2745,0,0,0,0,0,0.4332,0.4306,0.4237,0.4191,0.3904,0.374,0.3701,0.3533,0.3485,0.3461,0.3307,0.3194,0.2878,0.2879,0.2834,0.2829,0.2516,0.2519,0.2521,0.2707,0.2727,0.2744,0,0,0,0,0,0,0.4546,0.4272,0.4192,0.4091,0.3941,0.3701,0.3665,0.356,0.3417,0.3405,0.3197,0.3145,0.3036,0.2918,0.2924,0.2758,0.2683,0.2678,0.284,0.2857,0.2873,0.2904,0.2764,0,0,0,0,0,0.4582,0.4477,0.4241,0.4173,0.4103,0.3898,0.382,0.3703,0.3537,0.3472,0.3308,0.3149,0.3013,0.2928,0.279,0.2694,0.2638,0.2668,0.2683,0.2697,0.2695,0.2634,0.2644,0.2532,0.2532,0.2532,0,0,0.4654,0.4491,0.4437,0.4212,0.4083,0.3974,0.3846,0.3736,0.3652,0.3453,0.3323,0.3197,0.3004,0.2892,0.2834,0.279,0.2713,0.2701,0.2714,0.2703,0.2638,0.2649,0.2658,0.2534,0.2534,0.2533,0,0,0.4731,0.4598,0.4527,0.4401,0.4207,0.4071,0.4054,0.3828,0.3739,0.3605,0.3453,0.3347,0.3118,0.2987,0.289,0.2915,0.2805,0.2875,0.2957,0.29,0.2909,0.2915,0.2924,0.293,0.2873,0.2874,0.2874,0,0.4844,0.468,0.4503,0.4403,0.4308,0.4126,0.4051,0.3934,0.3704,0.364,0.3595,0.3303,0.316,0.3014,0.3021,0.2948,0.292,0.2903,0.2922,0.2927,0.2931,0.2937,0.294,0.2884,0.2882,0.2881,0.2881,0,0.4828,0.4715,0.468,0.4469,0.4368,0.4281,0.4087,0.4005,0.3896,0.3763,0.3626,0.3449,0.3271,0.3227,0.3117,0.3064,0.3043,0.2963,0.2884,0.2955,0.2957,0.2957,0.2898,0.2894,0.2891,0.2889,0,0,0.5031,0.4723,0.4713,0.4614,0.4387,0.4294,0.4195,0.4026,0.396,0.3806,0.3717,0.3526,0.3451,0.3341,0.3214,0.3164,0.3194,0.3088,0.3081,0.3115,0.3123,0.3186,0.3192,0.3119,0.3118,0.3118,0.3139,0,0.5075,0.4898,0.4735,0.4614,0.4507,0.4331,0.4245,0.4093,0.3965,0.3851,0.3705,0.3575,0.3485,0.3418,0.336,0.3204,0.3193,0.3199,0.3031,0.3027,0.3088,0.3193,0.326,0.3289,0.3139,0.3139,0.3138,0,0.5104,0.4964,0.4835,0.4617,0.4565,0.4492,0.4323,0.4217,0.4039,0.3948,0.3827,0.3693,0.3576,0.3509,0.3343,0.3351,0.327,0.3183,0.3179,0.3159,0.309,0.3176,0.3294,0.3299,0.3138,0.3138,0.3138,0,0.5268,0.5044,0.4938,0.4858,0.4601,0.4554,0.4443,0.4264,0.4173,0.4022,0.3959,0.3795,0.3706,0.3579,0.3404,0.3371,0.3255,0.3173,0.3174,0.3179,0.316,0.3164,0.3269,0.3107,0.3107,0.3107,0.3106,0,0.5336,0.5264,0.5008,0.4944,0.4855,0.4666,0.4582,0.4455,0.4297,0.42,0.4034,0.3945,0.3718,0.36,0.346,0.3344,0.3303,0.3224,0.3188,0.324,0.3251,0.3187,0.3181,0.3107,0.3107,0.3107,0.3107,0,0.5505,0.5332,0.5204,0.4972,0.4911,0.4857,0.4655,0.4582,0.4444,0.4323,0.4283,0.4064,0.3917,0.3729,0.352,0.3425,0.3324,0.3268,0.3387,0.3367,0.3379,0.3381,0.3447,0.3445,0.3286,0.3288,0.3289,0,0.5562,0.5503,0.5265,0.5192,0.5088,0.497,0.4876,0.4684,0.4593,0.4385,0.4336,0.4177,0.4041,0.3812,0.3631,0.3469,0.3408,0.3442,0.3383,0.3437,0.3409,0.3416,0.3409,0.3459,0.3461,0.3464,0.3465,0,0.5681,0.5598,0.5472,0.5316,0.5211,0.5077,0.4935,0.4882,0.4659,0.4563,0.4414,0.4308,0.4096,0.3939,0.3754,0.3633,0.3511,0.3485,0.3477,0.3531,0.3603,0.3565,0.343,0.3485,0.3483,0.3482,0.3481,0.348,0.5795,0.5735,0.5559,0.5424,0.5298,0.5169,0.509,0.4942,0.4816,0.4633,0.4525,0.4379,0.4196,0.3937,0.382,0.3699,0.3653,0.3641,0.3638,0.3639,0.3656,0.3621,0.3664,0.3663,0.3662,0.3661,0.3661,0,0.5907,0.5785,0.5663,0.5473,0.5365,0.5263,0.51,0.5016,0.4891,0.4735,0.4604,0.443,0.4276,0.4083,0.3914,0.3854,0.3794,0.3816,0.3819,0.3793,0.3706,0.3731,0.3868,0.3868,0.3868,0.3868,0.3868,0.3868,0.5953,0.5846,0.5741,0.5567,0.5442,0.5304,0.5219,0.5097,0.4972,0.4787,0.4661,0.4537,0.4363,0.418,0.4033,0.3979,0.3925,0.3965,0.3895,0.3818,0.38,0.3782,0.3804,0.3954,0.3955,0.3991,0.3992,0.3992]},{"header":{"parameterUnit":"m.s-1","parameterCategory":1,"la1":30.2991,"la2":30.254,"lo1":-89.0895,"lo2":-89.0444,"dy":0.0017,"dx":0.0017,"nx":28,"ny":28,"refTime":"2025-07-22T09:00:00:Z","depth":0,"parameterNumber":3,"parameterNumberName":"V-component_of_WINDS"},"data":[0,0,0,0,0,0,0,0,0,0,0,0,0,0,0,0,0,0,0,0,0,0,0,0,0,0,0,0,0,0,0,0,0,0,0,0,0,0,0,0,0,0,0,0,0,0,0,0,0,0,0,0,0,0,0,0,0,0,0.6582,0.6587,0,0.71,0.7106,0.7112,0.7253,0.725,0.7247,0.7244,0.7795,0.7812,0.7829,0,0,0,0,0,0,0,0,0,0,0,0,0,0.5728,0.5743,0.6581,0.6588,0.6594,0.7099,0.7106,0.7113,0.7254,0.725,0.7246,0.7243,0.7789,0.781,0.7831,0,0,0,0,0,0,0,0,0,0,0,0,0,0.6158,0.5748,0.658,0.6724,0.6743,0.7098,0.7106,0.7115,0.7254,0.725,0.7245,0.7241,0.7782,0.7808,0.7834,0.8088,0,0,0.7914,0.7925,0,0,0,0,0,0,0,0,0.6133,0.6189,0.6697,0.6715,0.6736,0.7107,0.7007,0.7442,0.7256,0.7061,0.7244,0.7239,0.7571,0.7614,0.7722,0.8114,0.8138,0.7916,0.7932,0.7944,0.7951,0,0,0,0,0,0,0,0.6103,0.6168,0.6787,0.6704,0.6728,0.6768,0.6824,0.709,0.7336,0.7077,0.7089,0.7147,0.7581,0.7697,0.7736,0.8146,0.7916,0.7939,0.7955,0.7966,0.8769,0.8774,0,0,0,0,0,0,0.6046,0.6142,0.6771,0.6803,0.6416,0.6787,0.685,0.6993,0.7333,0.738,0.7151,0.7152,0.7654,0.7706,0.7756,0.8075,0.7943,0.7968,0.7983,0.8764,0.877,0.8776,0,0,0,0,0,0,0.6027,0.6101,0.675,0.6476,0.6561,0.6807,0.6966,0.7005,0.7121,0.7388,0.7435,0.7223,0.7652,0.7719,0.8002,0.8096,0.798,0.8004,0.8757,0.8766,0.8773,0.8714,0,0,0,0,0,0,0.6002,0.6093,0.6189,0.6476,0.6575,0.6983,0.6972,0.7019,0.7164,0.717,0.7468,0.7514,0.7654,0.7962,0.8028,0.813,0.8024,0.875,0.8761,0.8771,0.8709,0.8719,0.8728,0,0,0,0,0,0.5971,0.6157,0.6194,0.6269,0.6699,0.6988,0.7045,0.7197,0.717,0.7271,0.7442,0.7504,0.8074,0.799,0.8066,0.8177,0.8745,0.8758,0.877,0.8705,0.8717,0.8728,0,0,0,0,0,0,0.5884,0.6198,0.6242,0.6525,0.6727,0.7011,0.7143,0.7206,0.7426,0.7424,0.7609,0.7676,0.7945,0.809,0.7991,0.8439,0.8411,0.8439,0.8335,0.835,0.8359,0.832,0.8046,0,0,0,0,0,0.5896,0.6098,0.6364,0.6589,0.6687,0.6896,0.7028,0.7126,0.7347,0.7436,0.7628,0.7844,0.8071,0.8219,0.8443,0.8729,0.8797,0.8843,0.8852,0.8858,0.8882,0.9042,0.9065,0.8818,0.8817,0.8817,0,0,0.5927,0.6123,0.6241,0.6576,0.6744,0.6954,0.6969,0.7191,0.7349,0.7472,0.7748,0.7896,0.815,0.8434,0.857,0.8563,0.8964,0.8875,0.8878,0.8899,0.9057,0.9081,0.9101,0.8826,0.8825,0.8823,0,0,0.6089,0.6256,0.646,0.6626,0.6878,0.7015,0.7063,0.7336,0.7436,0.7715,0.7809,0.8003,0.8392,0.8567,0.8708,0.8927,0.8993,0.8996,0.9049,0.9202,0.9222,0.924,0.9319,0.9344,0.9018,0.9018,0.9018,0,0.6097,0.6411,0.6559,0.6774,0.6919,0.7029,0.7239,0.7396,0.7711,0.781,0.7796,0.8281,0.8461,0.8786,0.8838,0.8948,0.9012,0.8965,0.9205,0.9226,0.9245,0.9322,0.9351,0.9016,0.9017,0.9017,0.9017,0,0.6408,0.6624,0.6759,0.705,0.7211,0.7422,0.7606,0.7751,0.7833,0.7972,0.8254,0.8471,0.8739,0.8824,0.8911,0.9162,0.9149,0.9168,0.9144,0.9265,0.934,0.9371,0.9014,0.9015,0.9015,0.9016,0,0,0.6537,0.69,0.6948,0.7079,0.7362,0.7535,0.7751,0.8005,0.8126,0.8338,0.8526,0.8847,0.8864,0.9023,0.913,0.9264,0.9423,0.9267,0.9276,0.9289,0.9712,0.9697,0.9728,0.9466,0.9472,0.9477,0.9691,0,0.6735,0.7119,0.7255,0.7574,0.7775,0.7879,0.8068,0.8263,0.8398,0.8592,0.8743,0.8967,0.8973,0.9069,0.9206,0.9374,0.9511,0.9361,0.9647,0.9655,0.9581,0.9768,0.9755,0.9947,0.9721,0.9726,0.973,0,0.702,0.7225,0.756,0.7812,0.7902,0.8068,0.831,0.8493,0.8717,0.8805,0.8977,0.9073,0.9306,0.9263,0.9588,0.9482,0.9607,0.9707,0.9718,0.9754,0.9701,0.981,1.0012,1.004,0.9778,0.9774,0.9771,0,0.7079,0.7441,0.7687,0.7797,0.8097,0.8211,0.8343,0.8561,0.8703,0.8917,0.9011,0.9251,0.9383,0.9568,0.9727,0.9681,1.0037,1.0009,1.012,1.0116,1.0195,1.0188,1.042,1.0271,1.027,1.027,1.0269,0,0.7288,0.7489,0.7717,0.7869,0.8097,0.8253,0.8477,0.8616,0.8807,0.8991,0.9098,0.9269,0.9467,0.9664,0.979,1.004,1.0099,1.018,1.0211,1.0172,1.0161,1.0258,1.025,1.0277,1.0276,1.0274,1.0273,0,0.7396,0.7556,0.7831,0.8088,0.8158,0.8315,0.8538,0.8692,0.8826,0.9057,0.912,0.9335,0.9572,0.9746,1.0057,1.0141,1.0408,1.044,1.033,1.0346,1.0448,1.0436,1.0753,1.0803,1.0617,1.0618,1.062,0,0.7519,0.7675,0.7946,0.8072,0.82,0.8404,0.8547,0.8706,0.8852,0.9113,0.9236,0.9477,0.968,1.0055,1.0242,1.0479,1.0518,1.0612,1.0555,1.0508,1.0521,1.051,1.0526,1.0622,1.0623,1.0624,1.0625,0,0.7722,0.7791,0.799,0.8215,0.838,0.8567,0.8757,0.8856,0.9048,0.9207,0.9445,0.9601,0.9911,1.0152,1.0405,1.0547,1.0619,1.0639,1.0678,1.0641,1.0571,1.061,1.0353,1.0633,1.0632,1.0632,1.0631,1.0631,0.7844,0.7985,0.8195,0.8412,0.8568,0.8741,0.8895,0.9045,0.9245,0.9505,0.9587,0.9834,1.0052,1.0397,1.054,1.0739,1.0738,1.0794,1.0809,1.082,1.0817,1.0534,1.0786,1.0786,1.0786,1.0786,1.0786,0,0.8052,0.8189,0.8387,0.8643,0.8813,0.8856,0.9066,0.9208,0.9421,0.9614,0.9808,1.0081,1.0313,1.0514,1.0755,1.0875,1.0914,1.0933,1.0928,1.0959,1.0805,1.0747,1.0897,1.0897,1.0897,1.0897,1.0897,1.0897,0.8181,0.8421,0.8514,0.8834,0.8973,0.9209,0.9325,0.9485,0.9639,0.9937,1.0126,1.0252,1.045,1.0704,1.0919,1.0972,1.1057,1.1068,1.113,1.0983,1.097,1.0958,1.0904,1.1085,1.1085,1.1268,1.127,1.1271]}]]